This is the latest recevied weather packets stored in our database for station/object K7NDG. If no packets are shown the sender has not sent any weather packets the latest 10 day(s).
| Time | Temp. | Humidity | Pressure | Rain* | Wind** | Luminosity | Snow |
|---|---|---|---|---|---|---|---|
| 1777599683 | 23.33° C | 45% | 1015.7 hPa | 0 mm | - | 69 W/m² | - |
| 1777599379 | 23.33° C | 45% | 1016 hPa | 0 mm | - | 71 W/m² | - |
| 1777599077 | 23.33° C | 44% | 1015.9 hPa | 0 mm | - | 72 W/m² | - |
| 1777598775 | 23.89° C | 44% | 1015.8 hPa | 0 mm | - | 72 W/m² | - |
| 1777598469 | 23.89° C | 44% | 1015.9 hPa | 0 mm | - | 79 W/m² | - |
| 1777598168 | 23.89° C | 45% | 1016.2 hPa | 0 mm | - | 78 W/m² | - |
| 1777597863 | 23.89° C | 43% | 1016 hPa | 0 mm | - | 76 W/m² | - |
| 1777597557 | 24.44° C | 43% | 1016.1 hPa | 0 mm | - | 76 W/m² | - |
| 1777597253 | 24.44° C | 43% | 1016.2 hPa | 0 mm | - | 76 W/m² | - |
| 1777596948 | 25° C | 42% | 1016.3 hPa | 0 mm | - | 67 W/m² | - |
| 1777596645 | 25° C | 42% | 1016.1 hPa | 0 mm | - | 69 W/m² | - |
| 1777596342 | 25° C | 42% | 1016.1 hPa | 0 mm | - | 64 W/m² | - |
| 1777596040 | 25.56° C | 41% | 1016.2 hPa | 0 mm | - | 78 W/m² | - |
| 1777595739 | 25.56° C | 44% | 1016 hPa | 0 mm | - | 109 W/m² | - |
| 1777595435 | 25.56° C | 45% | 1016.1 hPa | 0 mm | - | 243 W/m² | - |
| 1777595132 | 26.11° C | 44% | 1016.1 hPa | 0 mm | - | 176 W/m² | - |
| 1777594828 | 26.11° C | 48% | 1016.2 hPa | 0 mm | - | 292 W/m² | - |
| 1777594524 | 26.11° C | 46% | 1015.9 hPa | 0 mm | - | 363 W/m² | - |
| 1777594221 | 26.11° C | 47% | 1016.3 hPa | 0 mm | - | 376 W/m² | - |
| 1777593916 | 26.11° C | 47% | 1016.2 hPa | 0 mm | - | 402 W/m² | - |
| 1777593613 | 26.11° C | 45% | 1016.4 hPa | 0 mm | - | 338 W/m² | - |
| 1777593309 | 26.67° C | 44% | 1016.5 hPa | 0 mm | - | 402 W/m² | - |
| 1777593003 | 27.22° C | 43% | 1016.4 hPa | 0 mm | - | 248 W/m² | - |
| 1777592698 | 27.22° C | 38% | 1016.2 hPa | 0 mm | - | 217 W/m² | - |
| 1777592394 | 26.67° C | 35% | 1016.4 hPa | 0 mm | - | 175 W/m² | - |
* Rain latest hour (hover to see other rain measurements)
** Current wind speed in m/s (hover to see current wind gust speed)